Location: Forst
(46.9333°N, 15.4333°E)
Time: 16:11:47
(UTC+00:00)

OE (NEXTSAT) - Pass Details

Date: 01 December 2020
Orbit: 428 x 435 km, 46.0° (Epoch: 27 January)

Event Time Altitude Azimuth Distance (km) Brightness Sun altitude
Rises 16:49:24 0° 274° (W) 2,398 9.5 -16.1°
Reaches altitude 10° 16:51:32 10° 272° (W) 1,529 8.3 -16.5°
Maximum altitude 16:54:58 70° 189° (S) 459 4.4 -17.1°
Enters shadow 16:56:01 40° 117° (ESE) 643 4.8 -17.2°
